Torna al catalogo

COSMOS 1823 DEB

AttivoLEO
NORAD 19562·DEBRIS·🇷🇺 Russia

Lanciato Feb 20, 1987 da Plesetsk Cosmodrome

Loading…

Prossimi Passaggi (prossime 24 ore)

TLE

In scadenzaSource: Space-Track

Epoca: Sep 12, 2026, 16:55 UTC

1 19562U 87020CD  26255.70498448  .00028615  00000-0  12254-1 0  9991
2 19562  74.3438 155.7340 0009222 234.1742 156.4048 14.24694830246143

Traccia COSMOS 1823 DEB in tempo reale con AllMySat

Download on the App Store